EW8974 Weather Reports


Display with metric or nautical units.
time (UTC)temp
F
wind
direction
speed
MPH
gust
MPH
rain 1hr
in
rain 24hr
in
rain mn
in
humidity
%
barometer
mb
20260905045002 82 178 0.0 3.0 0.00 0.00 0.00 69 1006.9
20260905044502 83 232 0.0 2.0 0.00 0.00 0.00 69 1006.9
20260905044001 83 232 0.0 3.0 0.00 0.00 0.00 68 1006.9
20260905043501 83 184 0.0 3.0 0.00 0.00 0.00 68 1006.8
20260905043101 83 201 0.0 3.0 0.00 0.00 0.00 68 1006.8
20260905043001 83 203 0.0 3.0 0.00 0.00 0.00 68 1006.7
20260905042600 83 244 0.0 3.0 0.00 0.00 0.00 67 1006.8
20260905042100 83 238 0.0 4.0 0.00 0.00 0.00 67 1006.9
20260905042001 83 262 1.0 5.0 0.00 0.00 0.00 67 1006.8
20260905041609 84 236 1.0 5.0 0.00 0.00 0.00 67 1006.8
20260905041101 84 252 1.0 5.0 0.00 0.00 0.00 67 1006.8
20260905040600 84 226 0.0 3.0 0.00 0.00 0.00 67 1006.8
20260905040110 84 233 0.0 3.0 0.00 0.00 0.00 66 1006.8
20260905035559 84 198 0.0 3.0 0.00 0.00 0.00 66 1006.8
20260905035101 84 237 0.0 3.0 0.00 0.00 0.00 66 1007.0
20260905034603 84 228 0.0 4.0 0.00 0.00 0.00 66 1007.0
20260905034058 84 206 1.0 4.0 0.00 0.00 0.00 66 1006.9
20260905033559 85 248 0.0 3.0 0.00 0.00 0.00 65 1006.9
20260905033107 85 203 0.0 3.0 0.00 0.00 0.00 65 1006.9
20260905032559 85 237 0.0 3.0 0.00 0.00 0.00 65 1007.1
20260905032058 85 226 0.0 3.0 0.00 0.00 0.00 64 1007.0
20260905031608 85 239 0.0 3.0 0.00 0.00 0.00 64 1007.0
20260905031059 85 198 0.0 3.0 0.00 0.00 0.00 64 1007.0
20260905030558 86 277 0.0 4.0 0.00 0.00 0.00 63 1006.9
20260905030109 86 207 1.0 4.0 0.00 0.00 0.00 63 1006.9
20260905025558 86 230 0.0 2.0 0.00 0.00 0.00 63 1006.8
20260905025057 86 266 0.0 3.0 0.00 0.00 0.00 62 1006.8
20260905024606 86 210 1.0 3.0 0.00 0.00 0.00 62 1006.8
20260905024059 86 268 0.0 4.0 0.00 0.00 0.00 62 1006.7
20260905023557 86 8 0.0 4.0 0.00 0.00 0.00 62 1006.6
20260905023058 86 243 0.0 5.0 0.00 0.00 0.00 61 1006.5
20260905022556 86 245 1.0 5.0 0.00 0.00 0.00 62 1006.3
20260905022056 86 240 0.0 2.0 0.00 0.00 0.00 62 1006.2
20260905021603 86 193 0.0 1.0 0.00 0.00 0.00 61 1006.1
20260905021055 86 243 0.0 1.0 0.00 0.00 0.00 61 1006.0
20260905020556 87 248 0.0 1.0 0.00 0.00 0.00 60 1006.0
20260905020056 87 237 0.0 1.0 0.00 0.00 0.00 59 1005.9
20260905015555 87 238 0.0 1.0 0.00 0.00 0.00 58 1005.9
20260905015054 87 257 0.0 1.0 0.00 0.00 0.00 58 1005.8
20260905014555 87 245 0.0 3.0 0.00 0.00 0.00 57 1005.6
20260905014055 87 246 0.0 3.0 0.00 0.00 0.00 56 1005.6
20260905013555 87 243 0.0 2.0 0.00 0.00 0.00 56 1005.6
20260905013115 87 240 0.0 1.0 0.00 0.00 0.00 54 1005.6
20260905012554 87 240 0.0 0.0 0.00 0.00 0.00 53 1005.5
20260905012054 88 240 0.0 1.0 0.00 0.00 0.00 52 1005.3
20260905011556 88 240 0.0 1.0 0.00 0.00 0.00 51 1005.2
20260905011054 89 240 0.0 1.0 0.00 0.00 0.00 50 1005.1
20260905010554 90 240 0.0 1.0 0.00 0.00 0.00 49 1005.2
20260905010059 90 240 0.0 1.0 0.00 0.00 0.00 48 1005.1
20260905005554 91 235 0.0 1.0 0.00 0.00 0.00 47 1005.1
20260905005053 91 235 0.0 1.0 0.00 0.00 0.00 47 1005.0
20260905004555 92 221 0.0 2.0 0.00 0.00 0.00 46 1005.1
20260905004053 93 219 0.0 2.0 0.00 0.00 0.00 45 1004.9
20260905003553 94 235 0.0 2.0 0.00 0.00 0.00 44 1004.8
20260905003052 95 247 0.0 2.0 0.00 0.00 0.00 43 1004.8
20260905002552 95 259 0.0 4.0 0.00 0.00 0.00 42 1004.8
20260905002052 96 194 0.0 4.0 0.00 0.00 0.00 42 1004.7
20260905001553 96 200 0.0 2.0 0.00 0.00 0.00 42 1004.7
20260905001052 96 221 0.0 2.0 0.00 0.00 0.00 42 1004.6
20260905000554 97 203 0.0 4.0 0.00 0.00 0.00 41 1004.7
20260905000052 98 203 0.0 4.0 0.00 0.00 0.00 41 1004.7
20260904235553 98 285 0.0 4.0 0.00 0.00 0.00 41 1004.6
20260904235053 98 348 0.0 4.0 0.00 0.00 0.00 40 1004.6
20260904234552 99 309 0.0 2.0 0.00 0.00 0.00 40 1004.6
20260904234054 99 237 0.0 2.0 0.00 0.00 0.00 40 1004.6
20260904233551 100 331 0.0 1.0 0.00 0.00 0.00 39 1004.6
20260904233050 100 4 0.0 1.0 0.00 0.00 0.00 39 1004.5
20260904232550 100 6 0.0 2.0 0.00 0.00 0.00 39 1004.6
20260904232050 100 118 0.0 2.0 0.00 0.00 0.00 40 1004.4
20260904231549 100 304 0.0 3.0 0.00 0.00 0.00 40 1004.5
20260904231049 100 173 0.0 3.0 0.00 0.00 0.00 40 1004.5
20260904230553 100 320 0.0 3.0 0.00 0.00 0.00 39 1004.5
20260904225549 100 328 0.0 2.0 0.00 0.00 0.00 41 1004.5
20260904225048 100 195 0.0 3.0 0.00 0.00 0.00 41 1004.6
20260904224548 101 255 1.0 3.0 0.00 0.00 0.00 39 1004.6
20260904224049 102 251 0.0 4.0 0.00 0.00 0.00 39 1004.6
20260904223548 102 226 0.0 4.0 0.00 0.00 0.00 39 1004.6
20260904223104 102 251 0.0 3.0 0.00 0.00 0.00 39 1004.6
20260904222546 102 257 0.0 7.0 0.00 0.00 0.00 39 1004.6
20260904222046 103 179 2.0 7.0 0.00 0.00 0.00 39 1004.7
20260904221549 103 245 0.0 3.0 0.00 0.00 0.00 38 1004.5
20260904221045 102 315 0.0 3.0 0.00 0.00 0.00 39 1004.7
20260904220544 102 153 0.0 3.0 0.00 0.00 0.00 39 1004.7
20260904220046 102 293 0.0 4.0 0.00 0.00 0.00 39 1004.7
20260904215545 102 171 1.0 5.0 0.00 0.00 0.00 39 1004.6
20260904215042 102 181 0.0 5.0 0.00 0.00 0.00 39 1004.7
20260904214548 101 250 0.0 5.0 0.00 0.00 0.00 39 1004.7
20260904214041 100 243 0.0 9.0 0.00 0.00 0.00 41 1004.8
20260904213541 100 198 3.0 9.0 0.00 0.00 0.00 40 1004.8
20260904213043 100 179 3.0 9.0 0.00 0.00 0.00 39 1004.9
20260904212539 100 176 1.0 9.0 0.00 0.00 0.00 40 1005.0
20260904212039 100 242 2.0 8.0 0.00 0.00 0.00 41 1005.0
20260904211539 99 240 2.0 10.0 0.00 0.00 0.00 40 1005.2
20260904211037 100 315 2.0 10.0 0.00 0.00 0.00 41 1005.2
20260904210537 99 330 0.0 6.0 0.00 0.00 0.00 43 1005.1
20260904210036 99 216 2.0 6.0 0.00 0.00 0.00 40 1005.4
20260904205536 99 272 1.0 6.0 0.00 0.00 0.00 41 1005.6
20260904205035 99 286 1.0 7.0 0.00 0.00 0.00 42 1005.6
20260904204535 100 231 2.0 6.0 0.00 0.00 0.00 40 1005.8
20260904204034 100 266 1.0 5.0 0.00 0.00 0.00 40 1005.7
20260904203538 100 178 2.0 8.0 0.00 0.00 0.00 41 1005.8
20260904203034 100 230 0.0 7.0 0.00 0.00 0.00 39 1005.8
20260904202533 101 195 2.0 7.0 0.00 0.00 0.00 37 1005.9
20260904202032 102 257 1.0 4.0 0.00 0.00 0.00 38 1006.0
20260904201540 101 169 0.0 2.0 0.00 0.00 0.00 40 1006.0
20260904201033 100 160 0.0 9.0 0.00 0.00 0.00 41 1006.1
20260904200532 99 236 1.0 9.0 0.00 0.00 0.00 39 1006.1
20260904200041 100 230 2.0 7.0 0.00 0.00 0.00 41 1006.3
20260904195533 100 251 2.0 9.0 0.00 0.00 0.00 39 1006.4
20260904195029 101 214 0.0 4.0 0.00 0.00 0.00 39 1006.6
20260904194526 100 219 0.0 10.0 0.00 0.00 0.00 41 1006.5
20260904194026 99 237 1.0 10.0 0.00 0.00 0.00 41 1006.6
20260904193526 99 246 1.0 10.0 0.00 0.00 0.00 41 1006.6
20260904193035 100 182 2.0 6.0 0.00 0.00 0.00 39 1006.7
20260904192529 100 314 1.0 4.0 0.00 0.00 0.00 40 1006.8
20260904192026 100 316 1.0 7.0 0.00 0.00 0.00 40 1006.8
20260904191524 100 232 1.0 4.0 0.00 0.00 0.00 41 1006.9
20260904191023 100 338 0.0 3.0 0.00 0.00 0.00 41 1006.8
20260904190523 99 234 0.0 4.0 0.00 0.00 0.00 43 1006.8
20260904190021 99 350 1.0 5.0 0.00 0.00 0.00 45 1006.8
20260904185521 98 236 1.0 8.0 0.00 0.00 0.00 46 1006.9
20260904185020 98 199 1.0 8.0 0.00 0.00 0.00 45 1007.1
20260904184521 99 220 3.0 8.0 0.00 0.00 0.00 44 1007.0
20260904184020 99 203 0.0 3.0 0.00 0.00 0.00 45 1007.1
20260904183519 99 257 1.0 8.0 0.00 0.00 0.00 45 1007.1
20260904183018 98 199 0.0 8.0 0.00 0.00 0.00 45 1007.2
20260904182520 98 236 0.0 4.0 0.00 0.00 0.00 46 1007.3
20260904182019 98 214 0.0 8.0 0.00 0.00 0.00 46 1007.3
20260904181516 98 193 0.0 6.0 0.00 0.00 0.00 46 1007.5
20260904181016 98 240 1.0 6.0 0.00 0.00 0.00 46 1007.6
20260904180513 98 205 1.0 6.0 0.00 0.00 0.00 45 1007.7
20260904180013 97 28 1.0 6.0 0.00 0.00 0.00 46 1007.7
20260904175513 97 339 1.0 6.0 0.00 0.00 0.00 48 1007.9
20260904175010 97 192 2.0 6.0 0.00 0.00 0.00 46 1007.9
20260904174510 96 207 1.0 5.0 0.00 0.00 0.00 47 1007.9
20260904174009 95 173 0.0 5.0 0.00 0.00 0.00 51 1007.9
20260904173507 95 231 0.0 5.0 0.00 0.00 0.00 51 1008.0
20260904173005 95 351 1.0 4.0 0.00 0.00 0.00 50 1008.1
20260904172505 94 237 1.0 7.0 0.00 0.00 0.00 48 1008.2
20260904172004 94 228 2.0 7.0 0.00 0.00 0.00 49 1008.2
20260904171503 94 270 1.0 7.0 0.00 0.00 0.00 52 1008.4
20260904171003 94 214 2.0 7.0 0.00 0.00 0.00 53 1008.3
20260904170502 93 182 1.0 3.0 0.00 0.00 0.00 54 1008.3
20260904170100 92 261 0.0 6.0 0.00 0.00 0.00 55 1008.3
20260904165700 92 41 0.0 7.0 0.00 0.00 0.00 55 1008.5
20260904165057 91 244 2.0 7.0 0.00 0.00 0.00 54 1008.6
20260904164555 91 102 2.0 6.0 0.00 0.00 0.00 52 1008.4
20260904164056 91 311 2.0 8.0 0.00 0.00 0.00 54 1008.5
20260904163553 90 290 0.0 10.0 0.00 0.00 0.00 58 1008.5
20260904163057 90 226 3.0 10.0 0.00 0.00 0.00 57 1008.6
20260904162551 90 334 3.0 8.0 0.00 0.00 0.00 58 1008.5
20260904162050 89 309 3.0 7.0 0.00 0.00 0.00 59 1008.6
20260904161557 88 205 0.0 7.0 0.00 0.00 0.00 63 1008.7
20260904161046 88 243 2.0 5.0 0.00 0.00 0.00 65 1008.6
20260904160546 87 200 0.0 5.0 0.00 0.00 0.00 70 1008.6
20260904160048 87 219 1.0 5.0 0.00 0.00 0.00 70 1008.5
20260904155546 87 197 1.0 7.0 0.00 0.00 0.00 71 1008.5
20260904155046 86 202 1.0 7.0 0.00 0.00 0.00 72 1008.6
20260904154542 86 231 2.0 7.0 0.00 0.00 0.00 73 1008.6
20260904154043 85 281 2.0 6.0 0.00 0.00 0.00 74 1008.6
20260904153540 85 141 2.0 6.0 0.00 0.00 0.00 76 1008.4
20260904153059 84 268 3.0 7.0 0.00 0.00 0.00 76 1008.5
20260904152536 84 202 3.0 7.0 0.00 0.00 0.00 76 1008.5
20260904152034 83 247 1.0 9.0 0.00 0.00 0.00 79 1008.6
20260904151539 83 210 2.0 9.0 0.00 0.00 0.00 79 1008.6
20260904151034 83 198 2.0 7.0 0.00 0.00 0.00 80 1008.5
20260904150532 82 181 2.0 7.0 0.00 0.00 0.00 82 1008.5
20260904150036 82 238 2.0 6.0 0.00 0.00 0.00 83 1008.6
20260904145530 82 232 2.0 6.0 0.00 0.00 0.00 84 1008.5
20260904145029 81 282 0.0 5.0 0.00 0.00 0.00 85 1008.6
20260904144527 81 236 1.0 4.0 0.00 0.00 0.00 86 1008.5
20260904144026 80 226 1.0 4.0 0.00 0.00 0.00 87 1008.4
20260904143526 80 235 1.0 5.0 0.00 0.00 0.00 87 1008.5
20260904143024 80 248 1.0 5.0 0.00 0.00 0.00 88 1008.4
20260904142524 79 176 1.0 5.0 0.00 0.00 0.00 89 1008.4
20260904142022 79 257 0.0 4.0 0.00 0.00 0.00 89 1008.2
20260904141521 79 236 1.0 4.0 0.00 0.00 0.00 90 1008.4
20260904141019 79 226 2.0 8.0 0.00 0.00 0.00 90 1008.4
20260904140522 78 242 1.0 8.0 0.00 0.00 0.00 90 1008.3
20260904140018 78 223 1.0 3.0 0.00 0.00 0.00 91 1008.5
20260904135516 78 240 0.0 4.0 0.00 0.00 0.00 91 1008.3
20260904135017 78 217 0.0 4.0 0.00 0.00 0.00 92 1008.4
20260904134521 77 229 0.0 2.0 0.00 0.00 0.00 92 1008.4
20260904134013 77 281 0.0 3.0 0.00 0.00 0.00 92 1008.3
20260904133513 77 205 0.0 3.0 0.00 0.00 0.00 92 1008.3
20260904133013 77 239 0.0 1.0 0.00 0.00 0.00 93 1008.3
20260904132516 77 305 0.0 0.0 0.00 0.00 0.00 93 1008.2
20260904132011 76 305 0.0 1.0 0.00 0.00 0.00 93 1008.1
20260904131511 76 262 0.0 1.0 0.00 0.00 0.00 93 1008.1
20260904131010 76 262 0.0 1.0 0.00 0.00 0.00 93 1008.0
20260904130510 76 262 0.0 2.0 0.00 0.00 0.00 93 1007.9
20260904130010 75 250 0.0 2.0 0.00 0.00 0.00 94 1007.9
20260904125510 75 237 0.0 1.0 0.00 0.00 0.00 94 1007.8
20260904125010 75 319 0.0 0.0 0.00 0.00 0.00 94 1007.7
20260904124508 75 319 0.0 0.0 0.00 0.00 0.00 94 1007.9
20260904124008 75 319 0.0 2.0 0.00 0.00 0.00 94 1007.7
20260904123510 75 278 0.0 1.0 0.00 0.00 0.00 93 1007.7
20260904123006 74 293 0.0 1.0 0.00 0.00 0.00 93 1007.6
20260904122510 74 293 0.0 0.0 0.00 0.00 0.00 93 1007.4
20260904122006 74 293 0.0 1.0 0.00 0.00 0.00 93 1007.5
20260904121506 74 293 0.0 1.0 0.00 0.00 0.00 93 1007.5
20260904121006 74 293 0.0 1.0 0.00 0.00 0.00 93 1007.5
20260904120504 74 293 0.0 1.0 0.00 0.00 0.00 93 1007.4
20260904120006 74 3 0.0 1.0 0.00 0.00 0.00 93 1007.4
20260904115506 74 3 0.0 1.0 0.00 0.00 0.00 93 1007.3
20260904115005 74 13 0.0 0.0 0.00 0.00 0.00 93 1007.3
20260904114505 74 13 0.0 0.0 0.00 0.00 0.00 93 1007.3
20260904114008 74 13 0.0 0.0 0.00 0.00 0.00 93 1007.4
20260904113504 74 13 0.0 1.0 0.00 0.00 0.00 93 1007.2
20260904113005 74 13 0.0 1.0 0.00 0.00 0.00 93 1007.2
20260904112502 74 13 0.0 0.0 0.00 0.00 0.00 93 1007.1
20260904112002 74 13 0.0 1.0 0.00 0.00 0.00 93 1007.2
20260904111503 74 13 0.0 1.0 0.00 0.00 0.00 93 1007.1
20260904111003 74 13 0.0 1.0 0.00 0.00 0.00 93 1007.2
20260904110502 74 285 0.0 0.0 0.00 0.00 0.00 93 1007.1
20260904110003 74 285 0.0 0.0 0.00 0.00 0.00 93 1007.2
20260904105503 74 285 0.0 0.0 0.00 0.00 0.00 93 1007.2
20260904105003 73 285 0.0 0.0 0.00 0.00 0.00 93 1007.2
20260904104501 73 285 0.0 0.0 0.00 0.00 0.00 93 1007.0
20260904104002 73 285 0.0 0.0 0.00 0.00 0.00 93 1007.0
20260904103600 73 285 0.0 0.0 0.00 0.00 0.00 92 1007.0
20260904103059 74 285 0.0 0.0 0.00 0.00 0.00 92 1006.8
20260904102559 74 285 0.0 0.0 0.00 0.00 0.00 92 1006.8
20260904102058 74 285 0.0 0.0 0.00 0.00 0.00 92 1006.7
20260904101601 74 285 0.0 0.0 0.00 0.00 0.00 92 1006.7
20260904101058 74 285 0.0 0.0 0.00 0.00 0.00 92 1006.7
20260904100557 74 285 0.0 0.0 0.00 0.00 0.00 92 1006.7
20260904100057 74 285 0.0 0.0 0.00 0.00 0.00 92 1006.7
20260904095558 74 285 0.0 0.0 0.00 0.00 0.00 92 1006.6
20260904095056 74 285 0.0 0.0 0.00 0.00 0.00 92 1006.6
20260904094557 74 285 0.0 0.0 0.00 0.00 0.00 92 1006.7
20260904094056 74 285 0.0 0.0 0.00 0.00 0.00 92 1006.6
20260904093556 74 285 0.0 2.0 0.00 0.00 0.00 92 1006.6
20260904093057 74 285 0.0 2.0 0.00 0.00 0.00 92 1006.6
20260904092555 74 304 0.0 0.0 0.00 0.00 0.00 92 1006.6
20260904092057 74 304 0.0 0.0 0.00 0.00 0.00 92 1006.8
20260904091555 74 304 0.0 0.0 0.00 0.00 0.00 91 1006.7
20260904091054 74 304 0.0 0.0 0.00 0.00 0.00 91 1006.8
20260904090554 74 304 0.0 0.0 0.00 0.00 0.00 91 1006.7
20260904090054 74 304 0.0 1.0 0.00 0.00 0.00 91 1006.7
20260904085554 75 243 0.0 0.0 0.00 0.00 0.00 91 1006.7
20260904085054 75 243 0.0 0.0 0.00 0.00 0.00 91 1006.6
20260904084559 75 243 0.0 0.0 0.00 0.00 0.00 91 1006.6
20260904084055 75 243 0.0 1.0 0.00 0.00 0.00 91 1006.6
20260904083555 75 243 0.0 1.0 0.00 0.00 0.00 91 1006.6
20260904083054 75 243 0.0 1.0 0.00 0.00 0.00 91 1006.6
20260904082551 75 243 0.0 1.0 0.00 0.00 0.00 90 1006.6
20260904082051 75 243 0.0 1.0 0.00 0.00 0.00 90 1006.6
20260904081551 75 243 0.0 1.0 0.00 0.00 0.00 90 1006.6
20260904081050 75 243 0.0 1.0 0.00 0.00 0.00 90 1006.6
20260904080555 75 243 0.0 1.0 0.00 0.00 0.00 90 1006.6
20260904080113 75 243 0.0 1.0 0.00 0.00 0.00 90 1006.6
20260904075550 75 243 0.0 2.0 0.00 0.00 0.00 90 1006.6
20260904075050 75 243 0.0 2.0 0.00 0.00 0.00 90 1006.6
20260904074549 75 243 0.0 2.0 0.00 0.00 0.00 90 1006.6
20260904074052 75 243 0.0 1.0 0.00 0.00 0.00 90 1006.6
20260904073549 75 243 0.0 1.0 0.00 0.00 0.00 90 1006.7
20260904073049 75 243 0.0 1.0 0.00 0.00 0.00 90 1006.7
20260904072548 75 243 0.0 1.0 0.00 0.00 0.00 90 1006.6
20260904072052 76 243 0.0 1.0 0.00 0.00 0.00 90 1006.6
20260904071548 76 243 0.0 2.0 0.00 0.00 0.00 90 1006.8
20260904071047 75 243 0.0 2.0 0.00 0.00 0.00 90 1006.7
20260904070547 75 243 0.0 2.0 0.00 0.00 0.00 90 1006.8
20260904070056 75 234 0.0 1.0 0.00 0.00 0.00 90 1006.8
20260904065546 75 234 0.0 1.0 0.00 0.00 0.00 90 1006.9
20260904065046 75 234 0.0 1.0 0.00 0.00 0.00 89 1006.9
20260904064547 75 234 0.0 1.0 0.00 0.00 0.00 89 1007.1
20260904064045 75 234 0.0 1.0 0.00 0.00 0.00 89 1007.0
20260904063546 76 234 0.0 1.0 0.00 0.00 0.00 89 1007.0
20260904063107 76 231 0.0 0.0 0.00 0.00 0.00 89 1006.9
20260904062543 76 231 0.0 0.0 0.00 0.00 0.00 89 1006.9
20260904062047 76 231 0.0 0.0 0.00 0.00 0.00 89 1006.9
20260904061543 76 231 0.0 1.0 0.00 0.00 0.00 88 1006.9
20260904061047 76 231 0.0 1.0 0.00 0.00 0.00 88 1006.8
20260904060543 76 231 0.0 1.0 0.00 0.00 0.00 88 1006.7
20260904060048 76 231 0.0 1.0 0.00 0.00 0.00 88 1007.0
20260904055541 76 253 0.0 1.0 0.00 0.00 0.00 88 1006.9
20260904055041 76 253 0.0 1.0 0.00 0.00 0.00 87 1006.9
20260904054546 76 253 0.0 1.0 0.00 0.00 0.00 87 1007.0
20260904054041 76 253 0.0 1.0 0.00 0.00 0.00 87 1006.9
20260904053539 77 261 0.0 1.0 0.00 0.00 0.00 87 1006.9
20260904053052 77 234 0.0 2.0 0.00 0.00 0.00 87 1006.9
20260904052538 77 12 0.0 2.0 0.00 0.00 0.00 86 1006.9
20260904052038 77 201 0.0 3.0 0.00 0.00 0.00 86 1006.9
20260904051537 77 200 0.0 3.0 0.00 0.00 0.00 86 1006.8
20260904051036 77 241 0.0 3.0 0.00 0.00 0.00 86 1006.9
20260904050535 77 247 0.0 3.0 0.00 0.00 0.00 85 1006.8
20260904050035 77 246 0.0 3.0 0.00 0.00 0.00 85 1006.8
20260904045534 77 147 1.0 3.0 0.00 0.00 0.00 85 1006.9